sat.trackr.live / text

‹ back to catalog

STARLINK-3199

NORAD 49760 · 2021-115AN

PAYLOAD ACTIVE UNKNOWN

§ Identity

Operator
Country
US
Launch date
2021-12-02
Launch site
AFETR
Launch vehicle
Mass (kg)
RCS (m²)

Purposes: comms

External: N2YO · Heavens-Above · Gunter

§ Orbital elements

Epoch: 2026-05-24T17:53:23.433504Z

Period
95.44 min
Inclination
53.2142°
Eccentricity
0.0001218
Mean motion
15.08836324 rev/d
Perigee alt
538.9 km
Apogee alt
540.6 km
Semi-major
6,917.9 km
B*
3.1872e-5
RAAN
157.6955°
Arg perigee
82.1567°
Mean anomaly
277.9564°
Rev number
24,716

§ Raw data

STARLINK-31991 49760U 21115AN  26144.74541011  .00000219  00000+0  31872-4 0  99922 49760  53.2142 157.6955 0001218  82.1567 277.9564 15.08836324247164

JSON: /api/v1/satellites/49760 · /tle

For live sub-satellite position, see the globe view (requires WebGL).

§ Visibility from observer

Set your observer location to see the next 7 days of passes ≥ 10°. The values pass through the URL so the page stays shareable.

No JS? Fill the form by hand. The geolocation button needs JavaScript.